sat.trackr.live / text

‹ back to catalog

STARLINK-35265

NORAD 65748 · 2025-216Q

PAYLOAD ACTIVE UNKNOWN

§ Identity

Operator
Country
US
Launch date
2025-09-25
Launch site
AFETR
Launch vehicle
Mass (kg)
RCS (m²)

Purposes: comms

External: N2YO · Heavens-Above · Gunter

§ Orbital elements

Epoch: 2026-09-20T03:37:27.574176Z

Period
93.85 min
Inclination
53.1576°
Eccentricity
0.0001364
Mean motion
15.34406414 rev/d
Perigee alt
461.8 km
Apogee alt
463.6 km
Semi-major
6,840.8 km
B*
6.7142e-4
RAAN
147.0083°
Arg perigee
51.6994°
Mean anomaly
308.4132°
Rev number
5,527

§ Raw data

STARLINK-352651 65748U 25216Q   26263.15101359  .00022381  00000+0  67142-3 0  99982 65748  53.1576 147.0083 0001364  51.6994 308.4132 15.34406414 55272

JSON: /api/v1/satellites/65748 · /tle

For live sub-satellite position, see the globe view (requires WebGL).

§ Visibility from observer

Set your observer location to see the next 7 days of passes ≥ 10°. The values pass through the URL so the page stays shareable.

No JS? Fill the form by hand. The geolocation button needs JavaScript.